1999 FJ5  (e>0.40 was given, but not NEO)

Epoch 1999 Mar. 23.0 TT = JDT 2451260.5                 Nakano

M 196.26603              (2000.0)            P               Q

n   0.29875161     Peri.  350.04187     +0.96372591     +0.26677582

a   2.2161333      Node   354.46645     -0.23885793     +0.84883653

e   0.2212925      Incl.    4.72295     -0.11907673     +0.45640684

P   3.30           H   15.2           G   0.15           U   *

Residuals in seconds of arc 

990318 691  0.2+  0.3-    990319 691  0.4-  0.0     990323 691  0.4+  0.3+  

990318 691  0.2+  0.1-    990319 691  0.5-  0.1-    990408 360  0.0   0.1-  

990318 691  0.5+  0.1+    990323 691  0.4+  0.1+    990408 360  0.2+  0.0   

990319 691  0.4-  0.0     990323 691  0.3-  0.1+    990408 360  0.3-  0.0   

 

   



–ß‚è‚Ü‚·B